Wind_Speed
4 5 6 3 2 3 4 6 9 9 8 7 8 9 8 6 9 10 6 8 11 9 9 10 8 5 6 8 10 11 13 16 17 14 14 15 16 18 19 20 21 23 26 28 30 32 35 39 41 43 46 48 49 50 50 51 52 52 53 54 54 54 55 55 55 54 53 53 51 51 50 48 46 45 44 43 42 41 40 40 40 39 37 38 38 39 39
5 6 6 3 1 3 6 8 10 11 12 11 11 11 11 11 11 12 11 10 11 8 8 12 13 12 12 14 13 14 17 20 20 17 13 12 14 16 16 16 18 20 22 25 27 29 32 36 39 42 44 47 48 49 50 51 51 52 52 52 52 53 54 55 55 54 53 52 52 52 51 50 49 46 45 45 43 42 41 40 40 39 38 38 39 40 40
5 4 5 4 3 5 9 10 11 11 12 12 12 11 11 11 10 11 14 14 10 5 4 9 13 12 11 12 13 18 23 24 21 19 17 14 14 15 15 15 16 17 18 21 24 27 30 34 37 40 42 44 46 48 50 51 50 51 52 51 50 51 53 54 54 53 52 51 51 52 52 51 50 48 47 46 45 43 42 42 41 40 39 40 40 40 41
5 3 4 7 9 10 12 12 12 12 12 11 9 9 9 10 8 9 12 12 8 4 4 8 11 10 8 9 10 17 25 25 21 20 20 18 18 18 19 20 20 20 19 19 20 23 27 31 35 38 40 42 45 47 49 50 49 50 51 50 50 50 52 53 52 52 52 51 51 51 51 51 50 49 47 47 46 45 44 44 43 42 41 40 41 41 42
4 3 5 9 10 10 9 8 6 8 9 8 9 9 9 10 9 9 9 7 6 5 7 10 11 11 10 10 13 20 24 23 22 23 22 22 24 24 24 26 27 26 24 22 19 19 21 26 31 34 38 41 43 45 47 49 49 51 51 50 49 50 51 52 52 51 51 51 51 51 51 50 50 49 48 48 47 47 46 45 44 44 43 42 41 42 43
4 5 6 8 8 8 4 1 1 3 6 6 6 8 9 9 9 9 10 9 8 7 8 9 10 13 17 18 19 24 26 23 23 24 25 25 26 27 27 28 30 28 26 24 22 19 18 21 26 31 36 40 40 41 45 47 47 49 50 50 50 50 51 51 51 51 51 51 51 51 51 50 50 50 49 48 48 48 47 46 46 47 46 43 42 43 44
4 4 4 6 8 5 1 3 1 4 5 4 6 9 9 7 6 8 11 12 12 10 8 10 13 19 25 24 18 18 23 23 21 23 25 26 26 27 27 28 29 28 26 26 25 22 17 17 22 29 33 37 39 40 42 44 45 46 47 48 49 50 50 50 50 50 51 51 51 51 50 50 51 50 49 48 49 49 49 49 49 49 48 46 44 44 45
3 2 4 7 3 7 10 3 3 1 1 2 5 7 3 3 7 6 7 9 11 11 10 11 16 20 21 18 15 16 20 20 20 21 23 24 26 26 25 26 28 28 27 27 25 21 16 14 19 25 29 33 37 40 41 43 43 44 45 46 47 48 49 50 50 51 51 51 51 51 50 51 51 51 50 50 50 49 49 49 49 49 49 48 47 46 45
5 4 7 8 5 11 14 6 4 3 1 1 2 3 1 3 6 6 7 9 11 12 11 11 13 13 11 10 11 16 19 19 21 21 21 22 23 22 23 24 26 27 26 25 22 17 14 13 16 19 24 29 33 37 40 42 42 43 44 45 46 47 48 48 50 51 51 51 51 51 50 51 51 51 51 50 49 49 49 49 50 50 50 49 48 48 48
5 5 7 8 8 9 7 3 5 2 2 2 2 2 2 1 6 9 8 9 11 11 12 13 8 5 7 7 8 15 21 20 18 19 19 19 18 19 20 22 24 25 23 20 17 13 10 10 11 14 19 24 28 33 37 39 41 42 44 44 45 46 47 47 48 49 49 49 49 50 50 50 51 51 50 49 49 49 49 49 49 50 50 47 41 43 49
6 7 7 8 8 5 3 7 5 2 2 5 5 4 2 2 8 12 10 9 12 11 12 13 7 4 8 7 5 13 20 18 16 16 16 14 13 15 16 17 19 19 17 15 13 9 7 6 8 10 14 18 24 29 33 36 38 40 42 43 43 45 46 47 47 46 46 47 47 49 49 49 50 50 49 49 50 49 49 50 50 49 49 43 36 39 46
7 7 7 7 6 3 2 5 3 2 3 7 5 5 2 3 7 11 10 11 11 11 13 13 7 6 7 4 4 6 13 14 13 13 12 10 10 10 10 11 12 11 10 11 11 9 8 7 8 8 10 14 19 24 28 32 34 37 38 39 40 41 43 44 44 44 45 46 46 47 47 48 48 49 49 49 49 49 50 50 50 47 44 41 40 43 43
8 9 8 7 5 4 2 3 1 1 4 5 5 5 1 2 6 9 10 13 12 11 13 12 9 7 5 5 5 3 9 10 9 10 10 9 9 8 7 7 7 6 8 9 9 8 8 9 9 9 9 11 15 19 23 27 29 31 33 34 35 38 40 41 42 44 45 46 46 45 45 46 46 47 48 48 48 49 49 48 48 45 41 39 40 40 36
7 7 7 7 5 2 2 3 2 2 4 5 4 2 1 5 8 8 10 13 12 10 12 14 13 12 8 5 3 4 8 8 8 8 8 9 10 11 11 10 9 9 8 8 8 9 9 9 9 9 9 9 11 15 19 22 25 26 27 28 31 33 35 38 40 42 43 44 45 44 44 44 45 46 47 47 47 48 48 48 48 44 42 42 38 34 32
7 7 8 8 5 1 3 1 3 5 5 3 3 3 2 4 7 9 10 12 12 10 11 13 13 11 7 4 3 4 6 7 8 7 7 8 9 11 13 14 13 12 11 10 10 10 10 9 9 9 10 10 11 14 17 20 23 24 25 26 28 30 32 34 36 38 39 41 42 42 42 43 43 44 46 46 47 47 48 49 49 46 47 46 39 34 36
6 8 7 4 2 5 10 10 6 3 1 1 1 3 3 3 5 8 9 11 12 11 9 9 9 6 4 2 1 2 4 6 6 6 6 7 7 9 12 14 15 14 13 13 13 12 11 10 9 10 10 10 12 13 16 18 20 21 22 24 27 29 30 32 33 35 36 37 38 39 39 40 41 43 45 46 46 47 47 49 50 49 47 43 37 39 43
4 6 7 9 13 15 16 16 13 8 3 1 2 2 1 3 5 7 9 11 12 10 7 6 5 4 2 1 3 3 4 5 5 5 5 6 7 8 10 13 15 15 15 15 14 14 13 11 10 10 9 10 11 12 14 16 17 18 19 21 23 25 27 28 29 31 32 34 35 35 37 38 39 42 44 45 46 48 47 48 50 49 45 41 41 46 49
7 8 10 14 20 21 18 18 16 11 6 3 3 1 1 4 7 8 8 10 10 9 6 3 2 2 0 3 5 5 5 6 6 6 6 6 7 8 9 11 13 15 16 15 15 15 14 12 11 10 9 8 9 10 10 11 13 14 16 17 19 22 24 25 25 27 28 30 32 33 35 37 38 40 42 44 46 47 47 48 49 49 49 47 46 47 46
7 6 7 11 15 17 17 18 18 15 10 6 2 2 5 8 8 8 8 8 8 7 5 3 2 2 1 4 6 6 7 7 8 8 8 8 9 9 9 9 10 12 15 15 15 15 15 14 13 11 10 9 8 7 6 6 7 9 10 12 14 17 21 23 24 25 26 27 29 31 33 35 37 39 41 43 45 46 47 48 48 48 50 49 49 48 48
6 7 12 16 21 24 25 24 23 20 14 8 3 2 8 11 10 8 8 7 6 6 7 6 4 4 4 5 7 8 9 9 10 11 11 10 10 10 9 9 8 9 12 13 14 14 14 13 12 11 10 9 8 6 5 4 4 4 6 7 9 11 15 19 21 23 24 25 26 29 31 33 36 38 40 42 44 46 47 47 47 47 49 50 51 52 53
8 11 14 17 20 22 24 25 26 24 17 7 3 1 7 14 12 7 5 6 7 7 8 8 7 8 8 9 10 11 12 12 11 11 11 12 12 11 10 10 10 9 11 13 13 13 13 12 10 10 9 8 7 6 5 4 2 1 2 3 4 6 8 12 15 17 19 21 23 25 28 30 33 36 38 40 43 45 46 47 48 50 51 52 54 53 54
8 8 8 8 9 10 12 17 22 25 18 8 2 1 6 15 14 7 3 5 8 7 7 9 10 10 10 10 10 10 12 14 13 11 11 12 14 14 13 12 11 11 12 14 15 16 15 13 11 11 10 9 8 6 5 5 4 3 2 1 0 2 4 6 8 10 12 15 17 19 21 24 27 31 34 37 41 44 45 46 49 51 52 53 53 52 51
12 13 12 13 12 13 16 21 26 29 26 13 3 1 3 11 16 9 4 6 10 10 10 10 10 10 10 10 10 10 11 14 15 13 11 13 16 17 16 14 13 12 13 15 16 17 17 16 15 15 14 13 11 10 9 8 7 7 6 5 4 3 2 1 3 5 8 10 13 15 17 20 22 25 28 31 35 40 43 46 49 51 53 55 55 52 52
19 21 22 20 19 21 25 27 29 31 31 20 7 3 2 6 14 11 5 7 10 11 12 11 10 9 9 9 10 10 10 12 15 15 14 14 15 17 17 17 15 14 13 14 15 16 16 17 18 18 17 17 16 15 15 15 14 13 13 12 12 11 10 9 8 6 5 5 6 9 13 16 19 22 25 27 30 34 38 41 45 49 52 54 55 55 54
22 25 26 23 25 29 30 31 33 35 36 28 13 9 4 4 13 12 7 7 9 9 10 11 11 10 10 10 9 9 10 11 15 16 15 15 15 16 18 18 17 16 15 14 16 17 17 19 20 19 19 20 19 18 18 18 17 17 16 16 16 15 15 14 14 13 12 12 10 8 7 9 12 16 19 23 27 30 32 35 39 43 47 50 52 55 56
27 29 29 28 32 35 31 29 33 36 34 28 17 14 9 7 13 15 9 7 8 8 8 10 11 11 11 11 10 9 9 11 15 17 17 17 17 18 18 18 18 18 17 16 17 18 19 19 19 19 20 20 19 19 18 18 17 17 16 16 15 14 14 14 14 14 14 14 12 12 12 11 10 10 13 17 21 26 29 32 34 37 40 43 46 50 54
30 31 28 24 26 30 28 28 32 31 28 27 21 18 14 10 12 14 10 7 8 7 7 9 10 11 11 11 10 10 10 12 15 17 18 18 18 19 19 19 19 19 19 19 19 19 19 18 18 19 19 19 18 17 16 16 16 15 14 14 13 12 12 11 12 13 14 13 12 12 12 13 13 12 12 13 17 22 26 28 31 34 36 38 40 42 46
36 36 31 26 26 29 28 27 27 26 25 28 24 22 19 13 12 11 7 5 5 6 7 8 9 10 11 11 10 10 11 12 15 17 17 17 17 17 18 19 19 19 19 19 19 19 18 18 18 19 20 19 18 17 16 14 14 14 13 13 12 11 11 11 11 12 12 12 12 12 12 13 14 13 12 12 12 13 15 18 22 26 30 33 35 37 38
35 35 34 33 35 35 30 23 19 21 25 26 22 20 19 15 13 12 9 4 2 3 5 7 8 9 11 11 10 11 12 13 15 15 15 15 15 16 18 19 19 20 19 19 18 18 18 18 18 19 19 19 17 16 15 14 14 13 12 11 11 11 11 11 11 12 12 11 11 11 11 12 12 12 13 14 16 17 18 18 20 23 26 30 34 36 36
31 31 33 32 28 25 23 19 17 19 22 22 21 20 19 19 18 16 15 10 6 4 2 4 4 5 6 8 9 11 13 14 15 14 13 13 14 15 16 17 18 19 19 19 18 18 17 18 18 18 18 17 16 15 14 14 13 12 10 9 9 10 10 10 10 11 10 8 8 8 9 10 11 12 14 15 17 19 20 21 23 23 23 25 28 32 34
32 31 28 23 18 17 17 16 16 18 20 20 21 21 20 20 19 18 16 13 10 7 3 1 0 3 5 7 9 11 13 15 15 15 15 15 15 16 16 17 18 19 19 19 18 18 18 18 18 17 16 15 14 14 13 12 12 10 8 7 7 8 8 9 9 9 8 6 6 7 7 8 9 11 13 15 17 18 19 22 25 20 13 14 18 22 26
26 20 15 13 15 15 14 15 17 20 20 20 21 21 20 20 19 18 18 15 12 10 8 6 4 5 8 9 9 10 12 13 14 14 15 17 18 19 19 19 19 19 18 18 18 17 17 17 16 15 14 13 13 13 13 13 12 11 9 7 7 7 8 8 8 8 7 6 5 5 5 5 7 9 11 12 12 14 15 19 24 21 9 8 10 9 10
15 10 9 14 17 17 18 19 20 21 22 22 21 21 21 20 19 19 19 18 15 13 12 12 11 10 10 10 9 9 11 13 15 16 17 18 19 20 20 19 19 19 19 19 19 18 18 16 15 13 12 11 11 12 12 13 13 13 11 9 8 8 9 9 8 7 6 6 6 4 3 3 5 7 8 8 8 8 10 15 23 28 27 24 23 21 18
10 8 9 16 20 22 24 25 24 24 24 23 22 22 22 22 21 20 19 19 18 17 16 17 17 16 14 14 14 14 16 18 19 20 20 21 21 21 21 21 21 20 21 21 21 20 19 17 15 13 12 11 11 12 11 11 12 12 12 11 9 9 9 9 8 6 4 5 5 4 2 2 3 3 4 5 4 4 5 10 17 23 26 26 26 27 26
9 9 9 14 19 22 25 26 27 26 26 25 25 26 26 25 24 23 21 20 21 21 21 23 23 22 22 24 25 26 25 25 24 24 24 24 24 24 24 24 24 24 24 23 22 21 19 17 15 13 12 12 12 13 12 11 11 11 12 12 11 10 9 9 9 8 6 5 5 4 3 3 3 2 1 2 3 1 1 5 9 13 17 21 24 24 24
9 9 9 13 17 20 21 23 25 26 27 29 29 28 27 26 25 24 24 25 26 27 28 29 30 30 31 32 32 31 29 28 27 27 27 28 27 27 27 27 28 28 27 26 24 21 19 18 17 16 16 16 17 16 15 14 13 12 11 12 13 13 12 11 10 9 7 6 5 4 4 4 4 3 2 2 3 2 2 4 6 8 11 16 20 23 24
9 10 11 15 20 21 21 22 24 25 26 28 28 26 26 25 24 24 26 29 30 31 33 34 34 35 36 35 33 32 31 30 29 29 30 30 30 30 31 30 28 27 26 25 23 22 21 20 20 21 22 22 22 21 19 18 16 14 14 14 14 14 14 13 12 11 9 9 7 6 5 6 5 2 1 2 2 1 3 5 9 11 12 15 18 21 22
12 13 14 18 21 21 20 22 24 24 24 25 25 24 25 26 26 26 28 30 31 33 36 37 37 38 37 35 33 32 31 30 29 29 31 32 33 33 33 31 28 26 24 22 21 21 22 22 23 25 25 25 24 23 22 20 19 18 18 18 18 18 18 16 15 14 13 12 11 9 7 6 6 4 2 3 4 4 4 6 9 11 14 18 22 23 21
17 16 15 17 19 18 17 18 19 19 21 23 24 26 28 30 31 31 31 31 32 35 38 39 38 37 36 34 34 33 32 30 30 31 32 33 34 34 34 32 30 29 26 23 21 22 22 23 25 26 26 25 25 24 24 23 23 22 19 17 19 22 22 20 19 19 18 16 15 13 11 8 7 5 3 4 6 8 8 8 8 9 12 17 21 22 20
28 23 20 21 23 24 24 24 23 23 23 23 24 27 31 34 35 35 34 33 34 36 38 38 37 36 35 35 35 34 32 30 30 30 31 32 34 34 34 33 31 29 27 25 24 24 24 24 26 27 26 25 23 23 22 23 25 25 23 20 20 22 22 21 20 21 22 21 19 16 14 13 11 9 6 3 4 8 10 10 10 9 10 12 15 17 17
41 37 36 38 36 35 35 34 33 32 32 29 29 32 36 38 39 37 34 33 35 36 36 36 37 36 35 35 35 33 31 29 29 30 31 33 34 35 35 34 31 28 26 26 25 25 26 26 27 27 26 25 23 21 20 21 22 24 25 25 24 24 24 23 20 19 19 20 19 17 16 16 16 14 12 9 5 1 3 5 7 8 8 10 12 14 16
47 46 46 43 38 38 41 44 44 44 42 38 37 39 41 40 39 35 32 33 35 36 35 35 35 34 33 33 33 32 31 31 30 30 32 34 34 35 34 33 30 27 26 26 27 27 28 28 27 26 25 23 22 20 19 20 21 21 22 23 24 24 24 25 24 22 20 20 20 19 18 17 17 18 18 16 14 12 9 6 5 5 6 7 9 11 12
45 46 45 42 39 41 44 46 45 45 43 40 38 39 38 36 34 32 31 32 34 34 33 32 32 32 31 31 31 32 33 32 32 32 32 32 32 32 31 29 27 25 25 26 28 29 29 28 27 25 22 21 19 18 19 21 23 23 22 22 22 22 21 22 23 23 23 22 21 20 19 17 18 20 21 21 21 20 18 15 13 10 7 6 7 7 7
42 42 41 40 41 42 42 42 42 43 42 39 36 36 35 34 32 31 30 30 31 32 31 31 30 30 30 30 30 31 31 31 31 31 31 30 30 29 28 26 25 24 23 24 26 27 27 26 25 22 20 19 18 19 20 22 23 24 24 24 24 23 22 21 21 21 21 21 20 20 19 18 18 19 20 22 22 22 21 20 20 18 15 11 8 6 4
40 40 38 38 39 39 39 39 39 39 37 35 33 33 33 32 31 31 31 31 31 31 31 30 30 30 30 29 29 29 28 28 28 29 29 30 30 28 26 25 24 23 22 22 23 25 24 23 21 20 19 19 19 20 22 23 24 24 25 25 26 26 25 24 23 21 20 18 18 18 17 17 18 18 18 19 20 20 19 19 18 18 17 15 12 10 9
36 36 35 36 36 36 35 34 34 33 32 31 31 31 30 29 28 28 29 30 30 30 30 29 29 29 29 28 28 27 27 27 27 28 28 28 28 26 24 24 23 22 20 20 22 23 22 20 19 18 18 18 19 21 24 24 25 25 25 25 26 27 27 27 26 25 23 21 20 19 17 16 16 16 16 17 17 17 17 15 14 13 11 10 9 9 8
30 31 31 32 32 31 29 28 28 28 28 29 30 29 28 26 26 26 27 27 28 28 28 27 27 26 25 25 25 25 25 26 27 27 26 25 24 23 23 23 22 21 20 21 22 21 20 19 19 19 18 18 20 23 24 25 25 25 26 26 26 27 27 27 27 26 26 25 24 23 21 19 17 16 15 15 15 15 15 14 13 11 8 7 7 7 6
25 26 26 26 25 24 23 23 24 27 28 28 28 28 26 25 25 25 25 24 25 25 25 25 25 24 23 22 22 22 22 23 24 24 23 21 21 21 21 21 20 20 20 20 20 20 19 19 19 20 20 21 22 24 25 25 25 25 25 25 25 26 26 26 26 26 25 25 24 24 23 22 21 19 18 16 15 14 13 12 11 9 7 6 6 5 6
23 23 22 21 20 20 20 21 23 26 26 25 25 25 24 22 22 23 22 22 22 22 22 22 22 22 21 21 21 20 20 20 21 20 19 18 18 18 18 17 17 18 18 18 18 18 18 18 20 20 21 22 24 24 24 25 25 24 24 25 25 24 24 24 24 24 24 24 24 24 24 23 23 22 21 20 18 17 15 13 11 9 7 5 3 2 3
24 23 22 21 21 21 21 21 22 22 22 21 21 21 19 18 19 20 20 20 20 20 19 19 19 19 19 18 18 17 17 17 17 16 15 15 15 15 14 14 14 14 14 14 14 15 15 17 18 20 20 21 22 22 22 22 22 23 23 23 23 23 23 23 22 22 23 23 23 23 24 24 23 22 21 21 20 19 18 17 15 13 10 7 5 3 2
24 23 23 22 21 20 20 20 20 19 18 18 17 17 16 16 18 18 18 18 18 18 18 17 17 17 17 16 16 15 15 14 14 13 13 13 13 12 12 12 11 11 11 11 12 13 14 15 16 17 18 18 18 18 19 19 19 19 20 20 20 20 21 21 21 22 22 21 21 22 22 22 23 23 22 22 21 20 19 19 18 17 16 14 12 10 8
21 21 20 19 19 18 18 18 18 17 17 16 15 15 15 16 17 17 16 16 16 17 17 17 17 16 16 15 14 13 13 12 12 11 11 11 11 10 10 10 9 9 10 11 11 12 13 13 14 14 15 15 15 15 15 15 15 16 16 17 17 18 18 19 19 20 20 20 20 20 20 20 20 20 21 21 21 20 20 19 19 18 18 17 16 15 13
Wind_Direction
346 321 313 313 293 276 268 271 279 283 279 269 256 253 255 221 225 252 241 218 234 232 222 237 242 237 243 248 254 260 268 282 288 281 265 259 263 263 261 261 258 255 252 246 239 238 236 232 230 228 227 228 228 229 230 229 229 230 232 234 235 235 235 236 237 238 238 238 240 240 241 241 242 242 242 242 242 241 241 240 240 240 238 237 236 236 237
320 311 309 312 284 284 285 273 267 268 267 263 255 253 259 258 261 279 283 262 249 238 230 239 239 237 245 255 265 272 277 284 283 276 265 261 265 265 263 265 264 264 264 258 250 242 238 236 233 230 229 229 228 229 228 229 229 229 231 234 235 234 235 236 237 237 237 238 239 240 240 240 241 241 241 241 241 241 241 241 240 240 238 237 236 236 237
303 309 311 308 303 297 291 278 262 257 256 254 248 243 250 258 263 270 274 274 268 249 247 260 257 255 257 259 262 264 266 269 265 260 260 259 257 262 272 277 275 274 272 267 258 247 240 239 236 232 232 231 230 229 227 228 230 229 230 233 233 233 235 236 236 236 236 237 238 239 239 239 240 240 240 241 241 241 241 240 240 239 238 236 236 236 236
287 312 323 317 318 308 286 267 255 249 245 247 249 238 229 232 244 255 257 263 267 238 220 251 261 265 260 251 252 254 255 255 252 251 256 257 256 264 278 285 286 283 278 274 268 258 249 242 237 235 234 231 229 229 229 230 230 229 230 232 232 233 234 234 234 235 235 235 236 238 238 238 238 239 239 241 241 241 240 240 240 239 238 236 236 236 236
283 309 321 324 323 302 272 253 246 245 249 258 260 253 243 234 236 248 251 258 268 242 220 230 244 250 246 238 243 248 250 250 249 250 253 257 263 270 277 283 285 282 278 278 279 273 260 248 242 240 236 232 231 232 231 230 228 227 229 231 232 232 232 232 233 233 233 234 236 237 238 238 238 238 239 240 240 240 240 239 239 239 238 236 236 236 236
281 305 322 317 294 266 244 146 121 261 266 268 271 277 276 258 243 250 259 261 263 251 229 225 232 242 247 246 246 249 251 250 250 252 255 259 264 269 273 277 278 277 275 278 282 281 272 258 250 244 237 235 236 235 233 231 228 226 229 231 231 231 231 231 231 231 232 234 235 237 238 237 237 237 238 239 240 240 240 239 238 239 239 237 236 236 237
269 301 309 274 251 248 303 82 106 272 253 239 284 288 277 274 279 270 261 257 256 252 238 230 231 240 248 254 257 255 254 254 253 253 256 259 262 266 267 269 272 275 276 276 277 279 278 264 249 242 238 236 235 233 232 232 230 229 229 230 230 229 230 230 230 231 232 234 235 236 237 236 237 237 238 239 239 239 239 239 239 239 239 238 237 236 237
243 245 233 236 257 327 312 296 105 40 190 170 292 280 255 3 356 320 285 278 273 270 263 249 245 249 256 264 264 254 252 256 255 254 254 255 257 261 262 265 270 274 276 274 273 273 272 258 244 239 238 235 231 229 230 231 231 230 229 229 228 229 230 231 231 232 233 234 235 235 235 235 236 237 238 238 239 239 239 240 240 239 239 239 238 238 239
217 220 237 249 300 309 289 267 106 90 130 84 327 282 258 15 12 347 317 309 302 296 296 289 273 264 266 268 255 247 248 250 249 250 251 252 254 257 259 262 267 270 272 272 269 268 263 250 239 237 237 234 229 227 227 229 230 229 229 229 230 230 231 233 234 234 234 234 235 235 235 235 236 237 238 239 239 239 239 240 240 239 240 240 239 239 239
214 228 244 253 262 266 255 172 123 148 207 176 182 228 232 56 24 359 332 314 312 311 310 311 307 266 251 255 244 240 240 239 239 242 246 249 251 254 255 258 263 267 269 268 264 262 255 241 229 230 234 234 230 227 227 228 228 227 228 230 232 232 233 234 235 235 235 236 237 236 236 237 238 239 239 240 241 240 240 240 240 240 241 241 239 238 239
224 223 233 238 246 254 150 136 151 226 208 172 184 241 251 53 10 348 335 322 317 315 314 313 309 236 233 241 248 242 235 229 225 227 233 238 240 245 250 253 259 264 262 256 248 238 223 205 200 214 226 231 230 228 228 228 228 228 230 232 234 235 235 235 236 237 238 238 238 238 239 240 240 240 240 241 241 241 241 241 241 240 240 239 236 238 240
228 228 242 242 246 286 92 137 169 274 171 164 200 259 260 50 357 337 329 323 316 315 314 306 280 235 235 253 309 260 224 213 209 203 201 205 209 219 230 236 243 247 239 229 223 213 195 175 171 188 209 223 227 227 227 228 228 231 234 236 237 238 237 237 238 239 239 238 239 240 242 242 242 241 242 242 242 243 243 242 242 240 238 237 238 241 240
227 230 244 249 255 282 271 178 168 148 163 190 243 259 238 354 335 333 323 312 312 318 312 294 266 260 285 314 321 246 194 188 183 173 167 162 158 160 175 187 191 196 200 202 200 195 181 168 166 169 183 211 223 224 226 229 232 235 238 240 241 240 238 238 239 239 239 240 241 242 244 244 242 242 242 242 242 243 243 242 241 239 237 237 239 240 238
228 226 239 259 271 282 211 180 158 170 205 232 264 279 324 311 321 337 326 310 313 318 307 290 275 273 284 295 270 198 178 172 163 154 143 129 122 119 122 128 136 149 163 170 174 175 167 162 164 160 164 191 213 220 225 229 233 237 240 242 242 240 239 239 239 240 241 241 242 242 242 243 242 242 243 242 243 244 244 243 242 239 238 240 240 239 239
224 223 231 243 250 355 9 274 186 197 226 262 333 336 320 319 329 334 322 312 316 318 306 296 284 272 266 259 222 184 168 159 150 141 127 117 115 114 114 116 120 126 134 140 145 151 154 159 163 160 162 177 198 213 220 224 229 232 237 240 240 240 241 241 242 244 244 243 243 243 243 244 244 243 243 243 244 245 244 244 242 240 242 243 240 238 240
224 219 216 227 271 329 332 317 288 258 282 42 33 305 307 357 352 338 323 313 317 320 310 299 291 273 250 227 196 154 138 130 125 124 121 112 110 113 115 118 119 121 124 124 125 128 133 141 152 158 164 175 189 204 215 222 228 232 235 236 237 239 243 244 245 246 247 247 246 246 246 247 245 243 243 244 244 245 245 245 243 243 243 241 237 240 243
261 252 266 299 299 295 303 306 304 307 309 216 193 239 299 24 13 351 325 311 315 322 313 302 299 284 245 125 90 91 102 98 94 98 99 99 106 109 110 115 120 121 121 120 121 121 120 124 138 149 160 174 187 199 212 221 228 234 237 238 238 239 242 245 248 249 250 250 250 249 249 248 246 246 245 244 244 244 245 245 243 241 241 240 241 245 246
304 287 266 269 277 284 295 299 295 293 284 246 211 182 78 49 28 3 330 313 318 326 319 310 313 299 329 88 86 83 81 78 78 81 80 84 95 101 104 111 116 118 121 123 125 124 121 122 129 135 144 162 177 191 206 217 226 233 238 240 240 240 240 242 245 248 249 250 250 251 251 250 249 249 248 247 247 246 245 244 243 242 243 244 245 246 245
300 292 261 259 274 293 307 304 294 287 279 262 232 92 68 58 38 13 348 328 326 336 339 341 354 345 24 81 88 83 75 68 68 73 75 74 78 85 93 98 105 114 121 125 126 125 125 125 127 131 135 140 149 163 178 198 215 224 233 237 238 238 239 239 241 243 245 246 247 248 249 250 250 250 249 249 248 247 245 243 241 242 244 244 244 245 245
266 274 282 285 288 292 295 295 290 284 275 259 232 84 70 67 52 23 5 355 358 7 1 355 10 25 28 50 66 72 73 68 67 72 73 72 72 74 76 78 84 100 112 117 121 122 118 117 120 125 126 125 125 131 141 162 194 213 225 231 233 235 237 238 239 241 243 246 247 247 247 249 249 249 249 250 249 250 250 248 245 245 247 247 246 248 248
278 274 277 282 283 281 281 281 278 272 263 243 206 132 80 77 65 38 18 22 25 26 17 11 21 30 32 37 47 58 66 67 67 70 73 74 76 76 75 75 75 80 93 102 106 107 103 102 106 111 113 114 113 112 114 112 111 150 227 235 239 241 242 243 244 245 247 248 249 249 250 250 250 251 252 252 252 253 254 254 252 252 252 252 253 254 252
270 261 270 285 285 280 282 281 277 272 264 240 181 7 69 84 81 62 31 45 45 42 34 25 26 32 37 36 33 40 57 65 65 64 67 76 81 80 80 82 78 74 80 86 90 92 93 92 95 98 99 101 100 97 97 98 93 90 94 97 245 252 256 260 261 260 261 260 259 258 257 256 256 256 255 254 254 253 253 253 253 252 251 251 253 252 251
265 268 283 291 288 290 291 288 286 285 280 266 199 22 23 86 89 71 29 47 53 49 45 37 32 37 41 38 32 32 48 64 66 62 63 73 80 82 83 85 82 75 73 77 80 82 84 86 88 90 91 91 90 86 84 84 83 83 83 80 78 76 56 338 298 287 281 276 273 270 267 266 265 263 262 259 257 255 254 254 254 252 251 250 250 249 248
271 277 282 280 276 276 277 279 283 287 285 274 226 173 314 84 95 88 56 47 48 45 44 43 43 48 48 43 38 34 42 61 70 69 68 71 76 80 83 83 80 74 70 71 73 73 77 83 86 87 88 87 86 84 82 80 80 81 81 80 79 76 70 63 53 37 15 345 309 286 276 272 269 268 268 267 264 261 260 258 257 256 254 252 252 250 249
263 271 275 273 269 269 272 278 280 280 278 271 237 179 178 114 102 98 79 56 49 43 46 47 47 53 55 51 45 34 35 58 73 74 70 69 72 76 78 77 76 74 72 74 76 77 79 82 84 84 85 83 83 84 84 83 82 84 84 82 78 72 65 58 51 44 38 31 20 4 339 307 287 279 275 273 272 271 268 265 262 260 257 255 254 254 252
261 266 270 271 270 269 270 273 273 272 269 259 224 167 150 130 106 99 89 74 62 50 49 54 55 55 53 53 53 47 45 61 73 73 69 67 69 72 75 78 79 79 77 77 77 79 80 81 81 80 79 78 79 81 81 79 77 78 80 79 75 70 62 53 43 37 33 28 24 21 15 3 346 323 302 289 282 279 277 275 272 268 264 261 257 255 253
267 267 266 265 266 266 264 263 265 266 259 239 204 156 134 136 119 102 89 77 72 64 56 56 58 59 58 55 58 62 63 69 73 74 72 70 70 73 77 82 83 81 77 73 71 73 75 75 74 72 70 69 71 72 72 71 69 68 70 71 69 68 62 50 39 34 29 26 26 23 15 11 5 354 337 316 298 289 286 285 285 282 278 273 266 259 256
270 269 264 256 258 264 267 267 265 257 240 222 194 151 135 141 134 115 96 65 64 79 77 63 54 55 59 61 65 72 76 76 76 77 76 75 76 79 81 81 81 79 77 74 72 72 72 71 68 65 63 61 61 61 61 62 60 58 58 56 56 56 53 47 42 36 31 30 31 26 19 13 10 8 9 3 346 329 317 310 305 300 292 283 276 268 261
267 268 264 261 262 262 260 258 252 236 220 208 186 156 149 157 153 141 133 112 65 79 79 67 59 56 55 57 65 72 75 77 78 81 85 87 87 86 83 82 83 82 81 80 78 76 74 71 67 64 62 59 56 55 54 53 52 52 50 47 45 44 43 45 44 38 33 34 35 35 32 25 22 26 30 28 24 19 9 356 343 327 308 292 281 271 261
264 264 265 267 264 251 239 235 229 216 207 196 178 164 163 168 165 154 143 141 157 169 90 44 62 75 60 58 69 74 72 72 74 79 88 94 96 93 90 89 89 87 85 84 82 79 75 71 68 65 63 60 57 55 53 51 49 48 46 44 43 42 42 46 49 45 42 43 50 55 52 41 35 34 31 27 27 25 19 14 4 342 314 292 278 264 255
268 266 263 257 238 218 217 220 211 202 200 192 178 166 164 167 165 155 145 146 158 164 162 260 215 110 93 89 90 84 74 71 72 75 79 83 87 89 89 88 88 88 87 86 85 82 78 75 72 68 65 63 60 57 55 53 51 49 47 48 50 51 50 54 59 60 59 60 72 79 70 50 40 37 33 31 31 31 32 33 25 6 318 265 244 231 226
268 262 248 223 202 193 198 203 198 194 196 192 179 168 164 168 168 159 153 157 164 161 162 179 177 136 118 112 102 87 76 74 76 76 77 78 80 80 80 81 84 86 85 84 83 81 79 76 73 71 68 67 64 60 57 55 52 47 45 46 50 54 55 57 64 71 67 57 61 80 83 66 55 49 42 39 39 39 46 54 55 57 82 165 174 171 188
263 247 208 194 189 182 182 190 192 189 188 188 183 173 169 171 170 162 158 159 159 153 153 156 156 147 133 118 103 89 85 84 82 81 80 79 78 77 77 78 79 80 80 78 75 74 71 67 65 66 67 67 65 62 60 58 54 48 43 40 44 51 54 56 62 70 66 52 50 62 86 84 71 60 48 44 51 58 63 75 83 90 100 111 112 105 108
244 237 207 194 192 189 188 189 187 185 185 188 187 181 177 174 169 162 158 157 153 149 147 146 145 142 133 121 113 107 101 96 91 87 85 83 81 80 80 79 79 79 78 75 71 68 64 60 57 58 59 60 60 59 58 59 59 55 48 43 43 49 54 56 61 65 63 51 48 50 45 40 54 59 45 36 46 74 89 97 106 110 112 116 119 120 123
207 214 204 198 200 201 197 190 185 184 186 188 186 181 176 169 163 160 157 154 151 147 142 139 137 133 126 118 112 107 103 99 95 91 89 87 86 85 84 82 80 77 74 71 67 64 62 59 57 55 55 56 55 53 52 52 56 57 55 49 46 47 48 50 54 59 57 42 31 23 4 337 325 322 349 0 353 342 120 120 122 127 130 131 136 141 144
188 193 187 188 193 196 196 192 187 184 186 185 181 174 167 162 161 162 158 152 147 142 138 134 129 123 118 112 107 104 101 97 93 91 89 87 85 83 81 79 76 74 71 67 63 61 61 62 62 62 61 60 57 53 50 48 49 53 55 54 52 52 51 47 46 47 44 35 24 9 351 335 327 319 298 295 305 295 238 171 148 148 151 151 152 155 157
156 169 174 179 181 180 181 182 179 178 179 178 172 164 158 156 156 153 147 142 138 135 132 129 123 117 112 109 106 102 98 94 91 90 87 85 83 80 77 73 71 69 66 63 60 60 60 62 63 64 63 61 58 55 52 52 53 56 58 58 56 55 54 52 49 44 36 30 25 14 359 352 357 0 302 273 273 252 213 185 168 164 168 169 167 166 166
127 139 150 160 164 164 167 172 175 175 172 165 157 153 151 147 140 134 130 128 127 126 124 122 119 115 112 110 106 102 98 94 90 87 83 80 77 73 70 66 63 61 61 60 61 63 61 59 60 61 59 57 55 53 52 54 58 62 62 60 58 57 55 54 53 51 43 35 27 19 6 354 348 338 287 252 235 211 189 183 184 184 183 180 179 178 178
110 121 133 143 146 145 145 150 153 152 148 143 140 139 138 134 128 124 121 119 120 121 120 118 117 115 112 109 105 101 98 94 90 86 82 79 76 73 70 66 64 63 63 63 63 63 60 57 57 57 57 56 55 53 52 52 56 59 60 58 58 58 58 57 55 53 51 47 41 34 27 14 0 349 323 267 240 223 208 196 196 202 201 192 186 183 183
83 90 97 104 105 103 105 110 111 113 117 119 118 117 118 116 114 113 112 111 114 118 118 116 113 111 108 105 102 99 97 95 91 88 85 82 78 75 72 69 67 66 65 64 64 63 60 58 57 57 56 56 56 54 52 51 53 56 58 59 60 60 59 57 56 53 51 51 49 43 37 32 27 22 15 347 250 228 222 219 216 216 217 210 198 190 189
64 68 75 81 82 84 90 94 94 94 97 98 95 97 101 104 105 104 103 106 112 114 113 110 107 105 102 100 98 96 93 90 88 86 83 80 76 73 70 67 66 65 65 65 65 62 59 57 56 56 56 56 56 55 54 54 55 56 58 60 63 63 62 60 59 55 52 50 49 47 46 46 44 43 42 41 45 104 204 215 214 213 218 219 210 198 192
60 63 69 72 72 75 81 83 83 83 85 85 86 90 96 101 104 104 104 107 109 109 106 105 103 102 100 99 97 94 90 86 83 80 78 77 75 73 70 67 65 63 63 63 61 58 56 54 53 52 52 54 54 54 54 55 58 60 60 61 62 62 62 62 61 61 60 58 56 55 55 55 53 52 51 49 51 58 70 93 129 156 177 192 198 195 191
64 67 70 71 72 76 81 83 83 85 86 85 86 90 94 97 101 103 105 105 105 103 102 101 100 99 97 95 93 92 90 87 83 80 78 77 76 74 72 69 65 61 60 60 58 55 53 52 51 49 49 51 53 54 54 55 57 59 61 62 62 61 61 61 61 61 60 60 60 59 58 57 57 59 60 58 57 59 62 67 75 85 105 143 169 183 194
68 71 75 77 80 83 86 87 88 89 90 89 89 91 93 95 98 99 99 99 99 99 99 97 96 94 93 92 90 91 90 89 86 84 80 77 74 71 69 66 61 57 55 56 56 53 51 49 48 46 46 48 53 56 58 57 56 57 58 60 61 60 60 60 59 58 57 57 57 57 56 53 54 60 67 68 67 64 63 65 68 71 75 82 95 106 128
71 73 77 81 82 83 85 86 87 89 91 92 92 93 95 96 97 98 98 98 98 97 97 95 93 92 90 89 88 88 86 85 83 81 77 74 72 68 62 58 55 51 50 52 53 51 49 46 43 42 43 45 50 56 57 57 56 56 55 56 56 56 56 56 56 55 55 55 55 55 55 53 52 55 61 65 68 69 69 68 67 71 77 81 83 84 90
74 76 78 80 80 82 85 88 89 91 93 94 94 94 94 94 95 95 96 96 96 95 94 93 92 91 90 89 87 85 82 79 77 76 74 73 72 67 59 54 52 49 49 50 51 50 47 43 40 38 40 43 49 54 55 55 55 54 54 54 54 53 52 53 53 53 52 53 54 54 54 54 54 53 53 56 62 70 75 73 64 61 70 81 81 81 89
75 76 77 79 81 84 87 90 92 93 93 93 93 94 95 95 96 95 95 95 94 93 93 92 91 90 88 85 83 83 81 78 76 74 71 69 66 62 58 55 54 52 53 54 54 50 46 43 40 39 40 43 49 52 53 53 53 52 52 51 51 50 49 49 49 50 49 49 50 51 52 52 53 53 52 52 55 60 67 74 75 71 67 62 58 62 73
77 78 80 82 83 83 85 88 90 92 93 94 96 97 97 97 96 95 94 94 93 92 91 90 89 87 85 81 79 79 77 75 74 72 67 62 60 60 59 58 57 55 54 55 55 51 46 43 41 40 41 44 47 48 48 48 47 48 47 47 46 47 46 46 45 46 46 45 45 46 46 46 47 48 49 50 50 50 52 60 70 75 74 73 77 85 93
74 78 82 84 84 85 87 88 89 92 94 96 98 99 99 98 97 95 93 91 89 88 88 88 87 85 83 81 79 77 74 72 72 73 70 64 61 61 60 57 55 52 51 52 52 49 45 42 40 39 40 42 44 45 45 45 44 43 43 43 42 42 43 43 43 43 45 45 45 44 44 44 43 44 45 46 47 48 50 52 53 53 55 64 82 98 102
67 72 76 80 81 84 86 88 90 93 96 97 99 100 99 97 95 94 93 92 91 90 89 89 88 86 85 82 79 77 75 73 72 73 71 68 65 64 61 58 55 53 50 50 49 46 43 41 39 38 38 40 41 41 41 40 40 39 39 40 39 39 39 40 40 40 42 44 45 45 46 46 46 45 45 44 44 44 45 46 47 46 46 45 42 33 26
67 70 74 78 81 83 87 90 93 96 97 98 99 100 98 97 98 100 100 99 98 96 94 92 90 87 86 84 81 79 77 75 74 73 71 70 69 68 65 62 59 55 50 47 45 43 41 40 39 39 40 41 43 43 40 37 36 34 34 33 34 34 34 35 36 37 38 40 41 42 43 44 45 46 46 46 45 44 43 42 41 40 40 40 39 35 30
64 68 73 78 82 85 90 94 96 98 99 100 101 102 102 103 105 104 102 101 101 101 99 97 94 90 87 85 82 80 78 78 77 75 72 69 68 66 62 58 53 48 43 40 38 36 35 34 34 35 37 40 43 44 42 39 38 36 33 32 32 31 31 32 33 33 33 34 35 36 36 37 38 41 42 42 41 41 41 40 39 38 37 36 35 33 31
Height
1435 1433 1432 1432 1434 1435 1434 1434 1431 1428 1428 1429 1429 1427 1422 1418 1422 1421 1413 1413 1416 1411 1408 1407 1404 1403 1402 1400 1398 1397 1396 1397 1396 1397 1398 1398 1398 1398 1399 1400 1400 1401 1402 1402 1404 1406 1407 1409 1412 1414 1416 1418 1421 1423 1426 1430 1433 1436 1439 1442 1444 1447 1450 1452 1453 1456 1460 1464 1466 1469 1472 1475 1478 1480 1483 1485 1488 1490 1492 1493 1496 1499 1502 1504 1506 1508 1510
1434 1432 1431 1431 1434 1434 1433 1431 1429 1427 1426 1425 1425 1424 1421 1420 1420 1417 1413 1414 1412 1408 1406 1403 1400 1399 1399 1398 1397 1397 1396 1397 1397 1397 1396 1396 1396 1396 1396 1397 1398 1399 1399 1400 1401 1403 1405 1406 1408 1410 1412 1414 1416 1418 1421 1424 1427 1431 1434 1436 1439 1442 1444 1445 1448 1452 1456 1459 1462 1465 1467 1469 1472 1475 1478 1480 1483 1485 1486 1489 1491 1494 1497 1499 1500 1502 1504
1435 1431 1430 1430 1432 1433 1431 1428 1424 1422 1422 1421 1421 1421 1419 1420 1421 1418 1414 1415 1412 1405 1402 1400 1398 1398 1398 1397 1397 1395 1395 1396 1396 1396 1395 1394 1394 1395 1395 1396 1396 1397 1397 1398 1398 1400 1401 1401 1403 1405 1407 1409 1412 1415 1417 1419 1422 1425 1428 1430 1434 1437 1438 1440 1444 1448 1451 1455 1457 1459 1462 1464 1467 1470 1473 1475 1477 1479 1481 1484 1486 1488 1491 1493 1495 1497 1499
1436 1430 1431 1431 1428 1426 1425 1422 1418 1416 1416 1415 1414 1414 1414 1416 1418 1416 1415 1415 1410 1402 1399 1400 1398 1398 1398 1396 1394 1393 1393 1393 1394 1393 1392 1392 1392 1393 1393 1393 1393 1394 1395 1395 1395 1395 1396 1397 1399 1400 1402 1405 1408 1410 1412 1414 1416 1420 1423 1426 1429 1431 1433 1436 1440 1443 1447 1450 1452 1454 1456 1459 1462 1465 1469 1471 1472 1474 1476 1478 1481 1483 1485 1488 1490 1492 1494
1437 1431 1431 1429 1427 1428 1423 1413 1410 1410 1409 1408 1407 1406 1406 1407 1409 1412 1412 1409 1402 1396 1396 1398 1397 1396 1395 1393 1391 1390 1390 1390 1391 1390 1390 1390 1390 1390 1391 1391 1391 1391 1392 1392 1392 1391 1392 1393 1394 1395 1398 1401 1403 1405 1407 1410 1413 1417 1419 1421 1424 1426 1429 1432 1435 1439 1442 1445 1447 1449 1451 1454 1458 1461 1464 1465 1467 1469 1471 1473 1476 1477 1479 1482 1485 1487 1489
1439 1433 1430 1430 1433 1431 1418 1406 1406 1407 1407 1408 1409 1408 1406 1404 1402 1403 1402 1399 1395 1393 1394 1396 1396 1393 1389 1388 1388 1388 1387 1387 1388 1387 1387 1387 1387 1388 1388 1388 1388 1388 1388 1388 1388 1388 1389 1389 1390 1392 1395 1396 1398 1401 1405 1408 1412 1415 1417 1418 1421 1424 1426 1429 1432 1435 1438 1440 1442 1445 1447 1450 1453 1455 1458 1460 1461 1464 1466 1468 1470 1471 1474 1477 1480 1481 1483
1439 1432 1433 1439 1435 1421 1407 1404 1405 1404 1404 1407 1410 1408 1404 1402 1401 1400 1398 1395 1393 1391 1391 1391 1391 1388 1386 1385 1385 1386 1386 1385 1385 1385 1385 1385 1385 1385 1385 1385 1385 1385 1385 1385 1385 1385 1385 1386 1387 1389 1390 1391 1395 1399 1401 1404 1407 1410 1413 1416 1419 1422 1425 1427 1429 1431 1433 1435 1437 1440 1442 1445 1447 1449 1452 1454 1456 1458 1460 1463 1464 1466 1469 1472 1474 1476 1478
1438 1436 1438 1437 1425 1409 1401 1403 1404 1403 1405 1408 1409 1406 1401 1401 1403 1402 1399 1396 1392 1389 1388 1388 1388 1386 1385 1383 1383 1383 1384 1383 1383 1383 1382 1382 1382 1382 1382 1382 1381 1381 1381 1382 1382 1382 1383 1383 1383 1384 1385 1388 1392 1395 1398 1400 1403 1406 1409 1412 1415 1418 1421 1423 1425 1427 1428 1431 1433 1435 1438 1441 1442 1444 1447 1448 1451 1454 1456 1458 1461 1463 1465 1466 1468 1471 1473
1435 1436 1432 1424 1418 1412 1405 1402 1403 1405 1407 1408 1410 1410 1405 1401 1403 1403 1401 1399 1394 1391 1389 1388 1387 1387 1386 1384 1381 1380 1381 1381 1381 1381 1380 1380 1380 1379 1379 1379 1378 1378 1379 1379 1379 1380 1380 1380 1379 1380 1383 1386 1389 1392 1394 1396 1399 1402 1405 1407 1410 1412 1415 1417 1419 1421 1424 1426 1429 1432 1435 1437 1438 1440 1442 1444 1447 1450 1452 1453 1456 1458 1459 1461 1463 1466 1468
1431 1433 1430 1424 1424 1419 1406 1400 1403 1404 1405 1406 1408 1410 1407 1402 1402 1403 1402 1400 1396 1393 1390 1389 1388 1388 1389 1386 1380 1376 1377 1378 1378 1379 1378 1378 1378 1377 1377 1377 1376 1376 1376 1376 1377 1377 1377 1377 1378 1379 1381 1383 1386 1388 1390 1393 1396 1399 1401 1403 1405 1407 1409 1411 1413 1416 1419 1422 1425 1428 1430 1432 1433 1435 1437 1440 1442 1444 1447 1448 1451 1453 1456 1458 1460 1461 1462
1432 1433 1431 1425 1421 1412 1401 1399 1401 1402 1403 1403 1405 1408 1405 1401 1401 1402 1400 1399 1397 1394 1392 1390 1389 1389 1389 1384 1377 1373 1374 1376 1376 1377 1377 1377 1376 1375 1375 1374 1374 1374 1374 1374 1375 1375 1375 1375 1376 1377 1379 1381 1383 1385 1387 1390 1393 1395 1397 1399 1400 1402 1405 1407 1410 1413 1416 1419 1421 1423 1425 1427 1429 1431 1434 1436 1438 1441 1443 1444 1447 1450 1452 1454 1455 1455 1457
1436 1435 1429 1420 1412 1406 1400 1399 1400 1401 1400 1401 1408 1411 1404 1400 1401 1401 1399 1398 1396 1395 1394 1392 1389 1387 1384 1380 1376 1374 1375 1375 1376 1376 1376 1376 1375 1374 1373 1373 1372 1372 1372 1372 1372 1373 1373 1373 1374 1376 1378 1379 1381 1383 1386 1388 1390 1391 1393 1396 1398 1401 1404 1407 1410 1412 1413 1415 1416 1418 1420 1422 1426 1429 1431 1433 1435 1437 1439 1441 1443 1446 1448 1448 1449 1449 1451
1437 1437 1431 1420 1410 1402 1399 1400 1400 1400 1400 1404 1409 1408 1399 1397 1400 1399 1397 1397 1395 1394 1393 1391 1387 1383 1380 1379 1378 1376 1375 1376 1376 1376 1376 1375 1374 1373 1372 1372 1371 1371 1370 1370 1371 1371 1372 1372 1373 1375 1376 1378 1380 1382 1385 1387 1388 1390 1393 1395 1398 1401 1403 1406 1408 1409 1411 1413 1414 1415 1417 1420 1423 1426 1428 1430 1432 1433 1435 1438 1440 1442 1443 1444 1444 1445 1447
1436 1434 1430 1425 1415 1402 1398 1400 1400 1400 1403 1404 1401 1396 1394 1396 1396 1395 1396 1395 1393 1392 1391 1389 1386 1383 1381 1380 1379 1377 1376 1375 1375 1375 1375 1375 1374 1373 1372 1371 1370 1370 1369 1369 1370 1370 1371 1372 1372 1373 1375 1377 1380 1382 1384 1386 1388 1390 1392 1394 1396 1398 1400 1403 1405 1406 1408 1410 1412 1414 1416 1418 1420 1423 1424 1427 1428 1430 1432 1434 1435 1437 1438 1439 1441 1442 1443
1432 1433 1433 1432 1422 1405 1398 1401 1401 1399 1399 1397 1393 1392 1394 1395 1394 1394 1394 1393 1391 1391 1389 1387 1385 1383 1381 1380 1379 1377 1376 1374 1374 1375 1375 1375 1374 1373 1372 1371 1370 1369 1369 1368 1369 1369 1370 1371 1372 1373 1375 1376 1378 1381 1382 1384 1385 1387 1389 1391 1393 1396 1397 1399 1401 1402 1404 1406 1409 1412 1414 1415 1417 1419 1421 1423 1425 1426 1428 1429 1431 1432 1433 1434 1436 1437 1438
1428 1429 1426 1421 1413 1404 1403 1406 1403 1398 1396 1394 1393 1393 1393 1392 1393 1393 1392 1391 1391 1389 1387 1386 1385 1383 1382 1380 1379 1377 1376 1375 1375 1375 1374 1375 1375 1374 1373 1371 1369 1369 1368 1368 1368 1369 1370 1371 1372 1373 1374 1375 1377 1379 1380 1381 1383 1385 1387 1389 1391 1393 1395 1397 1398 1400 1402 1404 1406 1409 1411 1413 1414 1416 1417 1419 1420 1422 1423 1425 1426 1427 1428 1430 1432 1431 1432
1428 1424 1418 1412 1407 1404 1406 1407 1404 1401 1399 1396 1394 1393 1391 1391 1391 1391 1391 1391 1390 1388 1387 1386 1385 1384 1382 1380 1379 1378 1377 1376 1376 1375 1375 1375 1375 1374 1373 1372 1370 1369 1368 1368 1368 1369 1369 1371 1372 1372 1374 1375 1376 1377 1379 1380 1382 1384 1386 1387 1389 1391 1392 1394 1396 1398 1400 1402 1404 1405 1407 1409 1410 1411 1412 1414 1415 1416 1418 1420 1421 1422 1423 1425 1426 1426 1426
1427 1421 1417 1414 1409 1404 1405 1406 1405 1403 1401 1398 1395 1393 1391 1389 1389 1389 1391 1391 1389 1387 1387 1386 1385 1385 1383 1380 1379 1379 1379 1378 1376 1376 1376 1375 1374 1373 1373 1372 1371 1370 1369 1368 1369 1369 1370 1371 1371 1372 1373 1374 1375 1377 1378 1379 1381 1382 1384 1385 1387 1388 1390 1391 1393 1395 1397 1399 1400 1402 1404 1405 1406 1407 1408 1409 1409 1411 1412 1414 1415 1416 1417 1419 1420 1420 1421
1430 1423 1415 1411 1409 1406 1406 1408 1406 1404 1402 1399 1396 1394 1390 1387 1387 1389 1390 1390 1388 1387 1386 1386 1385 1385 1383 1381 1379 1379 1379 1379 1378 1377 1376 1375 1374 1373 1373 1373 1372 1371 1370 1369 1369 1369 1370 1370 1371 1372 1373 1374 1375 1376 1377 1378 1380 1381 1382 1383 1384 1386 1387 1389 1390 1392 1394 1396 1397 1399 1400 1401 1402 1403 1404 1405 1405 1406 1407 1408 1410 1410 1411 1412 1413 1413 1413
1429 1423 1415 1411 1410 1407 1405 1407 1406 1404 1403 1400 1396 1394 1390 1385 1385 1389 1390 1390 1388 1386 1386 1386 1385 1384 1384 1382 1379 1378 1378 1378 1378 1378 1377 1375 1374 1374 1374 1374 1374 1373 1372 1371 1370 1369 1370 1370 1371 1372 1373 1374 1375 1376 1377 1378 1379 1380 1381 1382 1383 1384 1385 1387 1388 1390 1391 1393 1394 1396 1397 1398 1399 1400 1401 1401 1401 1401 1402 1403 1405 1405 1405 1405 1405 1405 1406
1426 1421 1414 1411 1409 1405 1402 1403 1403 1402 1402 1399 1396 1394 1389 1382 1383 1389 1391 1390 1388 1386 1386 1386 1384 1382 1382 1381 1379 1378 1377 1377 1378 1379 1378 1377 1376 1375 1375 1376 1376 1376 1375 1373 1371 1371 1371 1371 1372 1373 1373 1374 1375 1376 1377 1378 1379 1380 1381 1381 1382 1383 1384 1386 1387 1388 1389 1390 1392 1393 1394 1395 1395 1396 1397 1397 1397 1396 1397 1398 1399 1399 1399 1398 1398 1399 1401
1423 1417 1412 1412 1410 1405 1401 1401 1400 1400 1401 1398 1394 1393 1389 1381 1381 1389 1392 1390 1388 1386 1385 1384 1383 1382 1380 1380 1380 1380 1377 1376 1377 1379 1379 1379 1377 1376 1376 1376 1377 1378 1377 1375 1374 1372 1372 1373 1373 1373 1373 1374 1375 1376 1376 1377 1378 1379 1380 1381 1382 1383 1384 1385 1386 1386 1387 1388 1389 1390 1391 1391 1392 1392 1392 1393 1392 1392 1393 1393 1394 1394 1394 1394 1394 1396 1397
1414 1410 1411 1413 1411 1406 1402 1401 1400 1398 1399 1397 1392 1391 1390 1383 1380 1386 1392 1390 1387 1386 1385 1384 1384 1382 1381 1381 1381 1381 1380 1378 1377 1378 1380 1380 1379 1377 1376 1377 1378 1379 1379 1378 1376 1375 1374 1374 1374 1374 1374 1374 1374 1375 1375 1376 1377 1378 1379 1381 1382 1382 1383 1384 1385 1385 1386 1386 1387 1387 1387 1388 1388 1388 1387 1388 1387 1387 1388 1388 1388 1389 1389 1388 1390 1392 1392
1410 1409 1412 1412 1409 1405 1401 1401 1399 1396 1396 1396 1391 1390 1390 1385 1380 1384 1389 1389 1386 1386 1386 1385 1384 1383 1382 1382 1382 1383 1382 1380 1378 1378 1380 1380 1380 1378 1376 1376 1377 1379 1380 1379 1379 1378 1377 1376 1376 1375 1374 1374 1375 1375 1376 1377 1377 1378 1379 1380 1380 1381 1382 1383 1384 1384 1385 1385 1385 1385 1385 1384 1384 1383 1383 1383 1382 1382 1382 1382 1382 1382 1382 1383 1383 1384 1385
1409 1408 1408 1408 1406 1402 1399 1399 1398 1394 1393 1394 1391 1388 1389 1387 1381 1381 1386 1387 1386 1386 1386 1385 1385 1384 1383 1383 1384 1384 1384 1382 1380 1379 1380 1380 1381 1379 1376 1376 1376 1377 1379 1380 1379 1379 1379 1378 1377 1377 1376 1376 1376 1377 1377 1378 1378 1378 1378 1379 1379 1380 1381 1381 1382 1382 1383 1383 1383 1382 1381 1381 1380 1379 1379 1378 1377 1377 1376 1376 1376 1376 1375 1376 1376 1377 1377
1406 1404 1405 1404 1401 1397 1397 1396 1394 1390 1390 1392 1390 1386 1387 1385 1380 1380 1383 1385 1385 1386 1387 1386 1385 1384 1383 1384 1385 1386 1386 1384 1381 1380 1380 1381 1381 1380 1378 1377 1376 1377 1378 1379 1379 1380 1380 1379 1379 1378 1377 1377 1378 1378 1378 1379 1379 1379 1379 1378 1379 1379 1379 1380 1381 1381 1381 1381 1381 1380 1379 1378 1377 1376 1375 1374 1373 1372 1371 1370 1369 1368 1368 1368 1368 1368 1368
1401 1400 1401 1399 1394 1391 1392 1392 1388 1385 1387 1389 1387 1383 1383 1383 1381 1380 1382 1383 1384 1386 1387 1386 1385 1384 1384 1385 1387 1388 1388 1386 1383 1381 1381 1382 1383 1382 1381 1379 1377 1377 1378 1379 1380 1381 1381 1380 1380 1379 1379 1379 1379 1379 1379 1380 1380 1380 1380 1379 1378 1378 1378 1379 1379 1379 1380 1380 1379 1378 1377 1376 1374 1373 1372 1370 1369 1369 1368 1366 1364 1363 1361 1360 1360 1361 1361
1394 1394 1395 1393 1387 1385 1386 1386 1384 1383 1385 1386 1384 1380 1380 1382 1381 1380 1381 1383 1384 1385 1386 1386 1386 1385 1385 1387 1390 1391 1390 1388 1385 1383 1383 1384 1385 1385 1383 1381 1379 1379 1379 1380 1382 1382 1382 1382 1382 1381 1381 1381 1381 1381 1381 1380 1380 1380 1380 1379 1379 1378 1378 1378 1378 1378 1379 1379 1378 1377 1376 1374 1373 1371 1369 1368 1367 1366 1365 1363 1361 1358 1355 1352 1351 1352 1353
1386 1385 1386 1384 1381 1380 1382 1383 1381 1381 1382 1384 1382 1378 1378 1381 1382 1381 1381 1382 1384 1385 1386 1386 1386 1386 1387 1390 1392 1393 1391 1389 1387 1385 1386 1387 1388 1387 1386 1384 1383 1382 1382 1383 1385 1385 1384 1384 1384 1383 1383 1383 1383 1382 1381 1380 1380 1380 1380 1380 1379 1378 1377 1377 1377 1377 1378 1378 1377 1376 1375 1374 1372 1370 1369 1368 1366 1364 1363 1360 1357 1353 1349 1346 1344 1344 1345
1379 1378 1378 1376 1375 1376 1377 1378 1378 1379 1381 1381 1379 1378 1378 1380 1381 1381 1381 1383 1384 1385 1386 1386 1387 1388 1390 1392 1394 1394 1393 1391 1389 1389 1389 1390 1389 1389 1388 1387 1386 1385 1385 1386 1387 1386 1386 1385 1385 1385 1385 1384 1384 1383 1382 1381 1381 1380 1380 1380 1380 1379 1378 1376 1376 1376 1377 1377 1377 1376 1375 1374 1372 1370 1369 1367 1366 1364 1361 1358 1354 1350 1345 1341 1340 1339 1340
1372 1371 1370 1370 1370 1371 1372 1374 1376 1378 1380 1380 1379 1378 1379 1380 1381 1381 1382 1383 1385 1385 1385 1387 1388 1389 1391 1394 1396 1395 1394 1393 1393 1393 1393 1392 1391 1390 1389 1388 1388 1388 1388 1388 1387 1387 1386 1386 1386 1386 1386 1386 1386 1385 1384 1383 1382 1381 1381 1380 1380 1379 1378 1376 1375 1376 1377 1377 1377 1376 1375 1373 1371 1369 1368 1367 1366 1365 1362 1358 1353 1348 1343 1340 1341 1341 1342
1366 1365 1365 1366 1367 1368 1370 1372 1375 1377 1379 1379 1378 1378 1379 1380 1381 1382 1382 1384 1385 1385 1386 1388 1390 1392 1393 1394 1395 1394 1394 1395 1396 1396 1396 1395 1393 1391 1390 1390 1390 1390 1390 1390 1389 1388 1387 1387 1387 1388 1388 1388 1387 1386 1385 1384 1383 1382 1381 1381 1380 1379 1378 1376 1375 1375 1376 1377 1377 1376 1374 1373 1371 1369 1368 1368 1367 1367 1365 1361 1356 1350 1344 1344 1347 1349 1350
1362 1361 1362 1364 1365 1366 1369 1372 1375 1376 1378 1378 1378 1378 1379 1380 1382 1382 1383 1383 1385 1387 1388 1390 1392 1394 1394 1393 1393 1393 1394 1396 1399 1399 1398 1395 1393 1391 1391 1392 1393 1393 1393 1392 1391 1389 1389 1389 1389 1390 1390 1389 1388 1387 1386 1386 1385 1384 1383 1382 1381 1379 1378 1376 1375 1376 1376 1377 1377 1376 1375 1373 1371 1369 1369 1370 1369 1369 1368 1365 1361 1356 1351 1351 1353 1355 1356
1360 1360 1361 1362 1363 1364 1366 1370 1372 1374 1376 1378 1378 1378 1379 1380 1381 1382 1383 1383 1385 1388 1390 1392 1394 1395 1395 1394 1394 1395 1397 1400 1401 1401 1399 1396 1394 1393 1395 1396 1397 1397 1395 1394 1393 1392 1392 1392 1392 1392 1391 1390 1389 1388 1388 1387 1386 1385 1384 1383 1381 1379 1378 1376 1376 1376 1377 1377 1377 1377 1375 1373 1372 1371 1371 1372 1372 1371 1371 1368 1365 1362 1359 1358 1358 1359 1361
1358 1359 1361 1362 1363 1364 1365 1367 1369 1372 1374 1376 1377 1378 1379 1380 1381 1382 1383 1384 1386 1389 1391 1393 1394 1395 1394 1394 1396 1398 1400 1402 1402 1402 1400 1398 1398 1398 1400 1400 1400 1398 1397 1396 1395 1395 1395 1395 1394 1393 1392 1391 1390 1390 1389 1388 1387 1386 1384 1383 1381 1379 1378 1378 1378 1378 1378 1378 1378 1378 1376 1374 1373 1372 1373 1373 1373 1373 1372 1371 1369 1367 1365 1364 1364 1365 1366
1358 1359 1359 1361 1363 1364 1366 1368 1369 1371 1373 1374 1375 1376 1378 1380 1381 1382 1383 1385 1386 1388 1390 1392 1393 1393 1394 1395 1398 1400 1402 1403 1403 1403 1402 1401 1401 1402 1402 1401 1401 1399 1398 1398 1398 1398 1398 1397 1396 1394 1393 1392 1391 1391 1390 1389 1388 1386 1384 1383 1381 1380 1379 1379 1379 1379 1379 1379 1379 1378 1376 1374 1373 1373 1373 1373 1374 1374 1373 1372 1371 1370 1370 1369 1368 1369 1370
1357 1358 1359 1361 1363 1365 1368 1370 1371 1372 1373 1374 1375 1376 1378 1380 1382 1383 1384 1385 1386 1387 1388 1389 1391 1392 1394 1396 1399 1401 1403 1404 1405 1404 1404 1403 1403 1403 1403 1402 1402 1400 1399 1399 1400 1401 1400 1399 1397 1395 1393 1392 1392 1391 1391 1389 1388 1387 1385 1383 1382 1381 1380 1380 1380 1380 1380 1380 1379 1379 1377 1375 1374 1374 1373 1373 1374 1373 1373 1373 1372 1372 1372 1372 1372 1373 1373
1359 1360 1361 1362 1364 1367 1369 1371 1373 1374 1374 1374 1375 1376 1378 1380 1383 1385 1386 1387 1388 1388 1388 1389 1391 1393 1395 1397 1399 1401 1403 1405 1406 1406 1405 1405 1404 1404 1403 1403 1403 1402 1401 1402 1403 1403 1402 1401 1399 1396 1394 1393 1393 1393 1392 1391 1389 1388 1386 1385 1384 1383 1382 1381 1381 1380 1380 1380 1379 1378 1377 1376 1375 1375 1375 1375 1374 1374 1374 1374 1374 1374 1373 1373 1373 1374 1376
1362 1363 1365 1366 1368 1370 1371 1373 1374 1375 1376 1377 1378 1380 1381 1382 1384 1386 1388 1389 1391 1390 1390 1391 1394 1396 1397 1399 1400 1401 1404 1406 1407 1407 1407 1407 1406 1405 1405 1405 1405 1405 1405 1406 1406 1405 1404 1402 1400 1397 1395 1395 1395 1395 1394 1393 1391 1390 1389 1388 1387 1385 1384 1383 1382 1382 1381 1380 1379 1378 1377 1376 1375 1375 1376 1376 1375 1375 1374 1374 1375 1375 1375 1375 1376 1377 1380
1365 1367 1368 1369 1371 1371 1371 1373 1376 1378 1380 1382 1384 1384 1384 1385 1386 1388 1390 1393 1395 1394 1394 1394 1396 1398 1399 1399 1400 1401 1404 1406 1408 1409 1409 1409 1408 1408 1408 1409 1409 1409 1409 1409 1408 1407 1406 1404 1402 1400 1398 1398 1398 1398 1397 1396 1395 1393 1392 1391 1389 1388 1386 1385 1385 1384 1383 1382 1381 1379 1378 1377 1376 1376 1376 1376 1376 1375 1375 1375 1376 1377 1377 1378 1379 1380 1382
1370 1371 1369 1370 1372 1374 1375 1378 1380 1381 1383 1386 1387 1387 1387 1387 1389 1392 1396 1398 1399 1398 1398 1398 1400 1401 1401 1400 1400 1403 1405 1408 1410 1411 1411 1411 1411 1411 1411 1412 1413 1413 1413 1412 1411 1410 1408 1406 1404 1403 1402 1402 1401 1401 1401 1400 1398 1397 1395 1394 1392 1390 1389 1388 1387 1387 1386 1385 1383 1382 1380 1380 1379 1378 1378 1378 1377 1376 1375 1376 1376 1377 1378 1380 1381 1381 1383
1380 1379 1377 1378 1382 1383 1383 1384 1384 1384 1387 1390 1392 1390 1390 1392 1395 1399 1403 1403 1401 1400 1401 1402 1403 1404 1404 1403 1403 1405 1408 1411 1413 1414 1413 1413 1414 1414 1415 1416 1418 1418 1417 1415 1413 1412 1410 1409 1408 1407 1406 1406 1405 1405 1404 1402 1401 1400 1398 1397 1395 1393 1392 1391 1390 1389 1388 1387 1386 1385 1384 1383 1383 1382 1381 1380 1379 1377 1376 1376 1376 1377 1378 1380 1381 1382 1384
1392 1391 1391 1393 1394 1392 1390 1391 1391 1392 1394 1398 1398 1396 1397 1400 1404 1407 1408 1407 1405 1404 1405 1406 1407 1408 1408 1408 1409 1410 1412 1414 1415 1416 1417 1418 1418 1419 1419 1421 1421 1420 1418 1416 1415 1414 1413 1413 1412 1412 1411 1411 1409 1408 1406 1404 1403 1402 1400 1399 1397 1396 1395 1394 1393 1392 1391 1389 1388 1388 1387 1387 1386 1385 1384 1384 1382 1380 1378 1378 1377 1378 1379 1380 1382 1383 1386
1401 1401 1402 1403 1402 1399 1398 1399 1400 1400 1401 1403 1404 1404 1407 1410 1412 1413 1413 1412 1410 1410 1410 1411 1412 1413 1414 1414 1414 1415 1417 1418 1419 1420 1421 1422 1422 1423 1424 1424 1423 1421 1419 1418 1417 1417 1417 1417 1417 1417 1416 1414 1412 1410 1407 1405 1404 1403 1402 1401 1400 1399 1398 1397 1396 1394 1393 1392 1391 1391 1390 1390 1389 1388 1387 1386 1385 1383 1382 1382 1382 1381 1382 1383 1385 1386 1388
1408 1408 1409 1408 1407 1405 1405 1405 1406 1406 1406 1408 1409 1412 1415 1417 1417 1418 1418 1417 1416 1416 1416 1416 1417 1418 1419 1419 1420 1421 1421 1421 1422 1422 1423 1424 1425 1426 1426 1425 1423 1422 1421 1420 1420 1420 1421 1421 1421 1420 1419 1416 1413 1410 1408 1406 1405 1405 1404 1403 1402 1401 1400 1399 1398 1397 1396 1395 1394 1393 1393 1392 1392 1391 1390 1388 1387 1386 1385 1385 1386 1386 1386 1387 1389 1390 1391
1415 1415 1414 1413 1411 1410 1410 1411 1411 1412 1412 1413 1415 1418 1420 1422 1422 1422 1421 1421 1421 1420 1420 1421 1422 1423 1424 1424 1425 1425 1426 1425 1425 1425 1425 1426 1427 1428 1427 1425 1424 1424 1424 1423 1423 1424 1424 1425 1424 1422 1420 1417 1414 1410 1408 1407 1407 1407 1407 1406 1406 1405 1404 1403 1401 1400 1399 1398 1397 1396 1395 1394 1394 1393 1392 1391 1389 1388 1388 1388 1389 1390 1391 1392 1392 1393 1393
1421 1420 1419 1418 1417 1417 1417 1417 1417 1417 1418 1419 1421 1423 1425 1425 1425 1425 1425 1425 1424 1424 1425 1425 1426 1427 1428 1428 1429 1429 1429 1429 1428 1428 1428 1428 1429 1429 1428 1428 1427 1427 1427 1426 1427 1427 1428 1427 1426 1424 1421 1417 1414 1411 1409 1409 1409 1409 1409 1409 1409 1408 1407 1406 1405 1403 1402 1401 1400 1399 1398 1397 1396 1395 1394 1393 1392 1391 1390 1390 1390 1392 1393 1394 1394 1394 1394
1427 1426 1425 1424 1424 1424 1424 1423 1423 1423 1424 1425 1426 1427 1428 1429 1429 1429 1429 1429 1428 1428 1429 1429 1430 1431 1431 1432 1432 1432 1432 1431 1430 1430 1430 1431 1431 1432 1431 1431 1431 1430 1430 1429 1430 1431 1430 1429 1427 1425 1421 1418 1414 1412 1411 1411 1411 1411 1412 1412 1411 1410 1409 1408 1407 1406 1405 1404 1403 1402 1401 1400 1399 1397 1396 1395 1394 1394 1393 1393 1393 1394 1395 1395 1396 1396 1397
1433 1433 1432 1431 1430 1429 1429 1428 1428 1428 1429 1430 1431 1431 1432 1432 1432 1432 1432 1432 1432 1432 1433 1433 1434 1434 1435 1435 1435 1434 1434 1433 1432 1432 1433 1433 1434 1434 1434 1433 1432 1431 1432 1432 1433 1433 1432 1431 1428 1425 1422 1419 1416 1415 1414 1414 1414 1414 1414 1414 1414 1413 1412 1411 1410 1409 1408 1406 1406 1404 1403 1402 1401 1400 1399 1398 1397 1397 1396 1396 1396 1397 1397 1397 1398 1398 1398
1440 1439 1438 1437 1436 1435 1434 1434 1434 1434 1435 1435 1435 1436 1436 1436 1435 1434 1435 1435 1435 1435 1436 1436 1437 1437 1437 1437 1436 1435 1435 1434 1433 1434 1434 1435 1435 1435 1435 1434 1434 1434 1434 1435 1435 1434 1433 1431 1428 1425 1423 1421 1419 1418 1417 1417 1416 1417 1416 1416 1416 1415 1414 1413 1412 1411 1410 1409 1408 1407 1406 1405 1404 1403 1402 1401 1401 1400 1400 1400 1400 1400 1400 1399 1399 1399 1399
1445 1443 1442 1442 1441 1440 1440 1439 1439 1439 1440 1440 1440 1440 1439 1438 1438 1438 1438 1438 1438 1438 1439 1439 1439 1439 1439 1438 1437 1437 1436 1436 1436 1436 1437 1437 1437 1437 1436 1436 1436 1437 1437 1437 1436 1434 1432 1430 1428 1426 1424 1423 1422 1421 1420 1420 1419 1419 1419 1418 1418 1417 1416 1415 1414 1413 1412 1411 1410 1409 1408 1407 1407 1406 1405 1404 1403 1403 1402 1402 1402 1402 1401 1401 1401 1401 1401
1449 1448 1447 1446 1445 1445 1444 1443 1443 1443 1443 1443 1443 1442 1442 1441 1441 1441 1441 1441 1441 1441 1441 1441 1441 1440 1440 1440 1439 1439 1439 1439 1439 1439 1439 1439 1439 1439 1439 1439 1439 1439 1438 1437 1436 1434 1432 1430 1428 1426 1425 1424 1424 1423 1423 1422 1422 1421 1421 1420 1419 1419 1418 1417 1416 1415 1414 1413 1412 1411 1410 1409 1408 1408 1407 1406 1406 1405 1405 1404 1404 1404 1403 1403 1403 1403 1402